User: anonymous   Login
Location: Dompnac
(44.5644°N, 4.1026°E)
Time: 20:09:39
(UTC+00:00)
Language:

NOSS 2-2 (D) - Orbit

View from above orbital plane
View from above orbital plane
View from above satellite
View from above satellite

Ground track
Ground track

The orbit data is extracted from the following two-line orbital elements,

1 21808U 91076D   21122.89970107 0.00000700  00000-0  11525-3 0    08
2 21808  63.3164  34.5951 0865555  42.7613 317.2387 13.41506673    05
Epoch (UTC): 02 May 2021 21:35:34
Eccentricity: 0.0865555
inclination: 63.3164°
perigee height: 456 km
apogee height: 1751 km
right ascension of ascending node: 34.5951°
argument of perigee: 42.7613°
revolutions per day: 13.41506673
mean anomaly at epoch: 317.2387°
orbit number at epoch: 0

The dashed part of the orbit path shows where the satellite is in the earth's shadow,  

DLR